QPF
0.00 0.00 0.00 0.00 0.00 0.00 0.00 0.00 0.00 0.00 0.00 0.01 0.01 0.02 0.02 0.02 0.02 0.02 0.02 0.01 0.02 0.03 0.03 0.04 0.04 0.03 0.03 0.03 0.03 0.04 0.06 0.06 0.06 0.05 0.05 0.05 0.05 0.05 0.04 0.02 0.01 0.01 0.01 0.02
0.00 0.00 0.00 0.00 0.00 0.00 0.00 0.00 0.00 0.00 0.00 0.01 0.02 0.03 0.02 0.02 0.01 0.02 0.02 0.02 0.02 0.03 0.03 0.03 0.03 0.03 0.03 0.03 0.04 0.04 0.06 0.07 0.08 0.07 0.05 0.04 0.04 0.03 0.02 0.01 0.02 0.02 0.02 0.02
0.00 0.00 0.00 0.00 0.00 0.00 0.00 0.00 0.00 0.00 0.00 0.01 0.02 0.03 0.03 0.02 0.01 0.02 0.02 0.03 0.03 0.04 0.04 0.03 0.04 0.04 0.04 0.04 0.04 0.05 0.08 0.10 0.09 0.07 0.04 0.01 0.01 0.02 0.01 0.02 0.02 0.03 0.03 0.03
0.00 0.00 0.00 0.00 0.00 0.00 0.00 0.00 0.00 0.00 0.00 0.01 0.01 0.02 0.01 0.01 0.01 0.01 0.01 0.02 0.02 0.03 0.02 0.03 0.04 0.04 0.04 0.04 0.05 0.07 0.09 0.10 0.08 0.06 0.03 0.01 0.01 0.01 0.01 0.01 0.01 0.01 0.01 0.01
0.00 0.00 0.00 0.00 0.00 0.00 0.00 0.00 0.00 0.01 0.01 0.01 0.01 0.01 0.01 0.01 0.01 0.01 0.01 0.02 0.02 0.02 0.02 0.02 0.03 0.04 0.04 0.06 0.08 0.08 0.08 0.07 0.05 0.04 0.02 0.01 0.01 0.00 0.01 0.01 0.01 0.01 0.00 0.01
0.00 0.00 0.00 0.00 0.00 0.00 0.00 0.01 0.00 0.01 0.00 0.00 0.01 0.01 0.02 0.01 0.01 0.01 0.01 0.01 0.01 0.02 0.02 0.02 0.03 0.04 0.06 0.09 0.10 0.09 0.07 0.05 0.03 0.02 0.01 0.01 0.01 0.01 0.01 0.01 0.01 0.01 0.00 0.01
0.00 0.00 0.00 0.00 0.00 0.00 0.00 0.00 0.00 0.00 0.00 0.01 0.01 0.02 0.03 0.02 0.01 0.01 0.02 0.02 0.01 0.01 0.01 0.01 0.02 0.04 0.08 0.11 0.10 0.09 0.08 0.07 0.07 0.07 0.03 0.02 0.02 0.02 0.01 0.01 0.01 0.01 0.01 0.01
0.00 0.00 0.00 0.00 0.00 0.00 0.00 0.00 0.00 0.00 0.00 0.00 0.01 0.01 0.01 0.01 0.01 0.01 0.02 0.02 0.02 0.02 0.02 0.02 0.03 0.04 0.05 0.06 0.06 0.07 0.08 0.09 0.10 0.11 0.07 0.03 0.02 0.02 0.01 0.01 0.02 0.02 0.01 0.01
0.00 0.00 0.00 0.00 0.00 0.00 0.00 0.00 0.00 0.00 0.00 0.00 0.00 0.01 0.01 0.01 0.02 0.03 0.05 0.03 0.03 0.03 0.02 0.03 0.04 0.05 0.05 0.05 0.05 0.06 0.07 0.09 0.09 0.09 0.07 0.04 0.04 0.03 0.02 0.02 0.02 0.02 0.01 0.01
0.00 0.01 0.01 0.00 0.00 0.00 0.00 0.00 0.01 0.01 0.01 0.01 0.01 0.01 0.01 0.01 0.01 0.03 0.06 0.04 0.03 0.02 0.03 0.04 0.06 0.07 0.07 0.09 0.08 0.05 0.06 0.08 0.08 0.07 0.04 0.03 0.04 0.04 0.04 0.03 0.03 0.02 0.02 0.03
0.01 0.01 0.01 0.00 0.00 0.00 0.00 0.00 0.00 0.00 0.00 0.00 0.01 0.00 0.00 0.00 0.01 0.02 0.03 0.03 0.03 0.02 0.03 0.04 0.06 0.08 0.10 0.14 0.10 0.05 0.04 0.04 0.04 0.04 0.04 0.04 0.04 0.05 0.05 0.05 0.05 0.04 0.04 0.04
0.01 0.01 0.01 0.00 0.00 0.00 0.00 0.00 0.00 0.00 0.00 0.00 0.00 0.00 0.00 0.00 0.00 0.00 0.01 0.01 0.01 0.01 0.02 0.03 0.04 0.05 0.06 0.06 0.05 0.04 0.03 0.02 0.03 0.04 0.04 0.04 0.04 0.04 0.04 0.05 0.06 0.05 0.06 0.07
0.00 0.01 0.00 0.00 0.00 0.00 0.00 0.00 0.00 0.00 0.00 0.00 0.00 0.01 0.01 0.00 0.00 0.00 0.00 0.01 0.01 0.02 0.03 0.05 0.04 0.04 0.04 0.03 0.03 0.03 0.02 0.02 0.02 0.04 0.04 0.05 0.04 0.04 0.04 0.04 0.03 0.03 0.04 0.05
0.01 0.01 0.01 0.00 0.00 0.01 0.00 0.00 0.00 0.00 0.00 0.00 0.01 0.02 0.01 0.01 0.01 0.00 0.01 0.01 0.02 0.04 0.05 0.06 0.07 0.06 0.04 0.03 0.02 0.03 0.02 0.02 0.02 0.02 0.03 0.04 0.04 0.03 0.03 0.03 0.02 0.02 0.02 0.02
0.01 0.01 0.01 0.01 0.01 0.01 0.00 0.00 0.00 0.01 0.01 0.01 0.01 0.01 0.02 0.02 0.02 0.02 0.03 0.05 0.06 0.05 0.03 0.03 0.03 0.04 0.04 0.04 0.04 0.04 0.04 0.03 0.03 0.03 0.03 0.03 0.03 0.03 0.03 0.03 0.03 0.02 0.03 0.02
0.01 0.01 0.01 0.01 0.02 0.02 0.01 0.00 0.01 0.02 0.03 0.02 0.02 0.02 0.04 0.06 0.05 0.04 0.05 0.06 0.06 0.04 0.03 0.02 0.02 0.03 0.03 0.03 0.04 0.05 0.05 0.05 0.05 0.04 0.04 0.03 0.03 0.03 0.03 0.02 0.02 0.02 0.02 0.02
0.01 0.01 0.01 0.02 0.03 0.04 0.05 0.03 0.02 0.02 0.03 0.03 0.03 0.03 0.04 0.06 0.08 0.07 0.06 0.06 0.07 0.08 0.05 0.03 0.03 0.03 0.04 0.04 0.04 0.04 0.05 0.06 0.07 0.07 0.06 0.05 0.05 0.05 0.05 0.04 0.04 0.04 0.05 0.05
0.01 0.01 0.02 0.02 0.05 0.06 0.07 0.07 0.05 0.04 0.04 0.04 0.06 0.05 0.05 0.06 0.07 0.07 0.06 0.05 0.05 0.04 0.04 0.04 0.04 0.04 0.04 0.04 0.04 0.04 0.05 0.06 0.06 0.06 0.06 0.05 0.05 0.06 0.06 0.05 0.05 0.05 0.06 0.08
0.01 0.02 0.03 0.04 0.06 0.07 0.07 0.08 0.09 0.07 0.07 0.09 0.09 0.07 0.06 0.06 0.05 0.06 0.05 0.05 0.04 0.03 0.02 0.03 0.04 0.05 0.07 0.07 0.05 0.04 0.04 0.04 0.03 0.04 0.04 0.04 0.05 0.06 0.06 0.05 0.05 0.09 0.08 0.06
0.03 0.02 0.05 0.06 0.06 0.08 0.07 0.09 0.16 0.12 0.10 0.15 0.12 0.08 0.06 0.04 0.03 0.04 0.04 0.04 0.03 0.02 0.02 0.02 0.02 0.02 0.04 0.05 0.04 0.04 0.03 0.02 0.02 0.03 0.04 0.05 0.06 0.07 0.08 0.07 0.06 0.07 0.07 0.05
0.03 0.04 0.07 0.09 0.07 0.07 0.07 0.08 0.19 0.17 0.16 0.20 0.13 0.08 0.05 0.04 0.03 0.02 0.02 0.02 0.01 0.01 0.01 0.01 0.01 0.01 0.01 0.01 0.01 0.01 0.02 0.02 0.02 0.03 0.04 0.05 0.05 0.04 0.06 0.06 0.05 0.05 0.05 0.05
0.02 0.04 0.06 0.08 0.08 0.07 0.08 0.11 0.16 0.15 0.15 0.14 0.09 0.06 0.04 0.02 0.01 0.01 0.01 0.01 0.02 0.02 0.01 0.01 0.01 0.01 0.01 0.00 0.00 0.00 0.01 0.01 0.01 0.02 0.02 0.03 0.03 0.03 0.04 0.05 0.05 0.05 0.05 0.05
0.03 0.02 0.03 0.04 0.05 0.05 0.09 0.13 0.13 0.13 0.11 0.09 0.06 0.04 0.02 0.01 0.01 0.01 0.01 0.02 0.02 0.02 0.01 0.01 0.01 0.01 0.00 0.00 0.00 0.00 0.00 0.00 0.01 0.01 0.02 0.02 0.01 0.02 0.02 0.03 0.04 0.04 0.05 0.04
0.04 0.03 0.02 0.03 0.04 0.05 0.08 0.07 0.06 0.06 0.05 0.04 0.03 0.03 0.02 0.01 0.02 0.01 0.02 0.02 0.02 0.02 0.02 0.01 0.01 0.01 0.00 0.00 0.00 0.01 0.00 0.01 0.01 0.02 0.03 0.02 0.01 0.01 0.01 0.01 0.02 0.03 0.03 0.03
0.03 0.02 0.03 0.03 0.04 0.05 0.05 0.03 0.02 0.03 0.03 0.02 0.02 0.02 0.02 0.02 0.03 0.03 0.03 0.03 0.02 0.02 0.02 0.02 0.01 0.01 0.01 0.01 0.01 0.01 0.01 0.01 0.01 0.02 0.03 0.02 0.02 0.02 0.01 0.01 0.01 0.02 0.03 0.03
0.03 0.02 0.03 0.03 0.04 0.04 0.04 0.02 0.02 0.02 0.03 0.04 0.04 0.05 0.05 0.05 0.04 0.04 0.03 0.02 0.02 0.01 0.01 0.02 0.02 0.03 0.03 0.02 0.02 0.02 0.02 0.02 0.02 0.01 0.02 0.02 0.02 0.03 0.02 0.02 0.02 0.02 0.02 0.03
0.03 0.03 0.04 0.04 0.04 0.04 0.03 0.03 0.02 0.02 0.04 0.06 0.08 0.09 0.08 0.06 0.05 0.05 0.04 0.03 0.02 0.01 0.02 0.02 0.02 0.03 0.04 0.04 0.03 0.02 0.02 0.02 0.02 0.02 0.02 0.02 0.02 0.03 0.03 0.03 0.03 0.03 0.03 0.03
MSLP
1010.35 1010.84 1011.39 1012.00 1012.62 1013.20 1013.68 1014.00 1014.13 1014.05 1013.78 1013.36 1012.87 1012.38 1011.96 1011.65 1011.49 1011.45 1011.50 1011.60 1011.68 1011.71 1011.67 1011.54 1011.35 1011.14 1010.96 1010.86 1010.85 1010.96 1011.18 1011.49 1011.86 1012.28 1012.71 1013.14 1013.57 1014.01 1014.45 1014.89 1015.35 1015.80 1016.22 1016.58
1011.14 1011.65 1012.17 1012.70 1013.21 1013.67 1014.04 1014.29 1014.38 1014.33 1014.15 1013.86 1013.52 1013.18 1012.87 1012.62 1012.45 1012.33 1012.25 1012.17 1012.05 1011.88 1011.64 1011.34 1011.02 1010.72 1010.46 1010.30 1010.25 1010.33 1010.52 1010.81 1011.18 1011.60 1012.06 1012.55 1013.05 1013.57 1014.11 1014.66 1015.21 1015.74 1016.23 1016.65
1012.03 1012.55 1013.05 1013.53 1013.96 1014.32 1014.61 1014.79 1014.87 1014.84 1014.72 1014.52 1014.28 1014.03 1013.78 1013.56 1013.34 1013.14 1012.92 1012.67 1012.37 1012.01 1011.61 1011.18 1010.75 1010.37 1010.05 1009.84 1009.76 1009.79 1009.94 1010.20 1010.55 1010.96 1011.43 1011.95 1012.51 1013.11 1013.73 1014.37 1015.00 1015.61 1016.17 1016.64
1013.02 1013.54 1014.02 1014.45 1014.81 1015.10 1015.31 1015.44 1015.49 1015.46 1015.36 1015.21 1015.02 1014.80 1014.57 1014.32 1014.05 1013.74 1013.40 1013.00 1012.56 1012.07 1011.55 1011.03 1010.54 1010.11 1009.77 1009.53 1009.42 1009.42 1009.54 1009.76 1010.07 1010.46 1010.92 1011.45 1012.04 1012.68 1013.37 1014.07 1014.78 1015.45 1016.06 1016.58
1014.07 1014.57 1015.01 1015.39 1015.69 1015.91 1016.06 1016.13 1016.13 1016.07 1015.95 1015.80 1015.60 1015.37 1015.10 1014.80 1014.45 1014.05 1013.61 1013.11 1012.56 1012.00 1011.42 1010.87 1010.37 1009.94 1009.60 1009.37 1009.25 1009.23 1009.32 1009.51 1009.78 1010.14 1010.58 1011.10 1011.70 1012.37 1013.09 1013.83 1014.58 1015.29 1015.93 1016.48
1015.11 1015.57 1015.96 1016.27 1016.51 1016.66 1016.73 1016.73 1016.67 1016.55 1016.39 1016.18 1015.94 1015.65 1015.33 1014.95 1014.52 1014.04 1013.52 1012.95 1012.36 1011.77 1011.19 1010.65 1010.18 1009.80 1009.50 1009.30 1009.20 1009.19 1009.26 1009.43 1009.67 1010.00 1010.41 1010.92 1011.51 1012.17 1012.89 1013.65 1014.41 1015.13 1015.78 1016.34
1016.06 1016.45 1016.77 1017.02 1017.17 1017.25 1017.24 1017.17 1017.03 1016.84 1016.60 1016.33 1016.01 1015.64 1015.24 1014.78 1014.28 1013.73 1013.15 1012.55 1011.94 1011.36 1010.82 1010.33 1009.93 1009.61 1009.38 1009.23 1009.17 1009.19 1009.28 1009.44 1009.67 1009.98 1010.38 1010.86 1011.43 1012.08 1012.78 1013.52 1014.26 1014.97 1015.60 1016.15
1016.86 1017.17 1017.41 1017.57 1017.65 1017.64 1017.56 1017.40 1017.18 1016.91 1016.60 1016.23 1015.83 1015.38 1014.89 1014.36 1013.79 1013.18 1012.56 1011.95 1011.35 1010.80 1010.30 1009.89 1009.55 1009.31 1009.16 1009.09 1009.09 1009.15 1009.27 1009.45 1009.70 1010.01 1010.40 1010.86 1011.41 1012.03 1012.70 1013.40 1014.10 1014.77 1015.37 1015.89
1017.44 1017.66 1017.82 1017.90 1017.90 1017.82 1017.67 1017.44 1017.15 1016.81 1016.42 1015.98 1015.50 1014.97 1014.41 1013.81 1013.17 1012.53 1011.88 1011.25 1010.66 1010.13 1009.68 1009.32 1009.06 1008.89 1008.80 1008.80 1008.87 1008.99 1009.16 1009.39 1009.66 1009.99 1010.39 1010.86 1011.39 1011.97 1012.61 1013.26 1013.90 1014.52 1015.07 1015.55
1017.78 1017.93 1018.01 1018.03 1017.97 1017.83 1017.62 1017.34 1017.00 1016.61 1016.16 1015.66 1015.12 1014.54 1013.92 1013.26 1012.58 1011.89 1011.22 1010.57 1009.98 1009.47 1009.04 1008.71 1008.48 1008.36 1008.33 1008.38 1008.51 1008.69 1008.93 1009.21 1009.53 1009.91 1010.33 1010.81 1011.33 1011.89 1012.49 1013.08 1013.67 1014.22 1014.72 1015.15
1017.91 1017.99 1018.02 1017.99 1017.88 1017.71 1017.47 1017.17 1016.81 1016.39 1015.91 1015.39 1014.82 1014.20 1013.54 1012.85 1012.14 1011.43 1010.73 1010.06 1009.45 1008.93 1008.49 1008.16 1007.94 1007.83 1007.83 1007.92 1008.09 1008.32 1008.62 1008.96 1009.34 1009.77 1010.23 1010.73 1011.25 1011.80 1012.35 1012.89 1013.41 1013.90 1014.34 1014.73
1017.85 1017.90 1017.89 1017.83 1017.72 1017.53 1017.29 1017.00 1016.64 1016.23 1015.76 1015.24 1014.67 1014.05 1013.39 1012.70 1011.98 1011.25 1010.53 1009.84 1009.21 1008.65 1008.19 1007.83 1007.59 1007.46 1007.45 1007.55 1007.74 1008.01 1008.35 1008.75 1009.19 1009.66 1010.17 1010.68 1011.21 1011.73 1012.24 1012.73 1013.18 1013.60 1013.98 1014.32
1017.68 1017.70 1017.69 1017.62 1017.51 1017.35 1017.13 1016.86 1016.54 1016.16 1015.73 1015.25 1014.71 1014.13 1013.49 1012.82 1012.12 1011.40 1010.67 1009.97 1009.32 1008.73 1008.23 1007.83 1007.54 1007.38 1007.34 1007.42 1007.61 1007.90 1008.27 1008.70 1009.18 1009.69 1010.21 1010.74 1011.25 1011.74 1012.20 1012.63 1013.02 1013.37 1013.69 1013.97
1017.44 1017.46 1017.45 1017.40 1017.31 1017.18 1017.00 1016.78 1016.50 1016.18 1015.81 1015.39 1014.91 1014.38 1013.81 1013.19 1012.53 1011.85 1011.15 1010.46 1009.80 1009.19 1008.65 1008.21 1007.88 1007.67 1007.59 1007.64 1007.81 1008.09 1008.46 1008.90 1009.39 1009.90 1010.43 1010.94 1011.43 1011.87 1012.27 1012.63 1012.94 1013.21 1013.46 1013.68
1017.18 1017.21 1017.21 1017.18 1017.13 1017.03 1016.90 1016.73 1016.51 1016.25 1015.95 1015.59 1015.20 1014.75 1014.25 1013.71 1013.13 1012.51 1011.86 1011.21 1010.58 1009.97 1009.43 1008.96 1008.59 1008.34 1008.22 1008.22 1008.36 1008.61 1008.95 1009.37 1009.84 1010.33 1010.82 1011.29 1011.72 1012.10 1012.43 1012.70 1012.92 1013.11 1013.27 1013.43
1016.94 1016.97 1016.98 1016.97 1016.95 1016.89 1016.80 1016.67 1016.50 1016.30 1016.06 1015.79 1015.47 1015.11 1014.70 1014.26 1013.77 1013.24 1012.68 1012.09 1011.51 1010.94 1010.41 1009.94 1009.56 1009.28 1009.12 1009.08 1009.17 1009.37 1009.66 1010.04 1010.45 1010.89 1011.32 1011.72 1012.07 1012.36 1012.60 1012.77 1012.90 1013.00 1013.08 1013.15
1016.73 1016.75 1016.77 1016.78 1016.76 1016.73 1016.66 1016.56 1016.44 1016.28 1016.09 1015.87 1015.63 1015.35 1015.04 1014.69 1014.31 1013.88 1013.41 1012.92 1012.41 1011.90 1011.41 1010.97 1010.59 1010.30 1010.11 1010.04 1010.08 1010.22 1010.45 1010.76 1011.10 1011.45 1011.80 1012.10 1012.36 1012.55 1012.68 1012.75 1012.78 1012.79 1012.78 1012.78
1016.55 1016.56 1016.57 1016.57 1016.57 1016.53 1016.47 1016.38 1016.27 1016.13 1015.98 1015.80 1015.61 1015.40 1015.16 1014.90 1014.61 1014.29 1013.93 1013.53 1013.11 1012.68 1012.25 1011.85 1011.49 1011.20 1011.00 1010.89 1010.89 1010.97 1011.13 1011.35 1011.61 1011.87 1012.11 1012.32 1012.46 1012.55 1012.58 1012.55 1012.49 1012.41 1012.33 1012.26
1016.39 1016.39 1016.38 1016.37 1016.35 1016.30 1016.22 1016.13 1016.01 1015.86 1015.71 1015.55 1015.38 1015.21 1015.03 1014.84 1014.62 1014.38 1014.11 1013.80 1013.46 1013.11 1012.74 1012.39 1012.07 1011.80 1011.59 1011.46 1011.41 1011.44 1011.53 1011.68 1011.84 1012.01 1012.15 1012.26 1012.31 1012.29 1012.23 1012.12 1011.98 1011.83 1011.69 1011.56
1016.27 1016.23 1016.21 1016.17 1016.12 1016.04 1015.94 1015.82 1015.67 1015.51 1015.34 1015.17 1015.00 1014.85 1014.69 1014.53 1014.36 1014.18 1013.97 1013.73 1013.46 1013.17 1012.86 1012.55 1012.26 1012.01 1011.81 1011.66 1011.58 1011.56 1011.60 1011.67 1011.76 1011.84 1011.90 1011.92 1011.88 1011.80 1011.66 1011.49 1011.29 1011.08 1010.89 1010.73
1016.17 1016.11 1016.05 1015.99 1015.91 1015.80 1015.67 1015.51 1015.33 1015.13 1014.94 1014.74 1014.56 1014.39 1014.24 1014.09 1013.93 1013.77 1013.60 1013.40 1013.17 1012.92 1012.66 1012.39 1012.13 1011.89 1011.69 1011.54 1011.43 1011.38 1011.37 1011.38 1011.41 1011.43 1011.42 1011.37 1011.28 1011.14 1010.96 1010.74 1010.51 1010.27 1010.05 1009.86
1016.09 1016.02 1015.94 1015.85 1015.75 1015.61 1015.45 1015.26 1015.05 1014.83 1014.60 1014.38 1014.17 1013.98 1013.81 1013.65 1013.49 1013.33 1013.16 1012.97 1012.77 1012.54 1012.29 1012.05 1011.81 1011.58 1011.38 1011.23 1011.11 1011.03 1010.99 1010.96 1010.94 1010.91 1010.86 1010.77 1010.65 1010.47 1010.26 1010.02 1009.77 1009.52 1009.29 1009.08
1016.05 1015.97 1015.88 1015.78 1015.66 1015.51 1015.34 1015.13 1014.91 1014.67 1014.43 1014.19 1013.96 1013.75 1013.55 1013.37 1013.19 1013.02 1012.83 1012.64 1012.43 1012.21 1011.97 1011.73 1011.50 1011.28 1011.09 1010.93 1010.80 1010.70 1010.63 1010.58 1010.53 1010.47 1010.39 1010.28 1010.13 1009.94 1009.72 1009.47 1009.21 1008.95 1008.71 1008.48
1016.06 1015.97 1015.89 1015.79 1015.68 1015.53 1015.37 1015.17 1014.96 1014.72 1014.48 1014.24 1014.01 1013.78 1013.57 1013.37 1013.17 1012.97 1012.77 1012.56 1012.34 1012.11 1011.87 1011.63 1011.40 1011.18 1010.99 1010.82 1010.68 1010.57 1010.48 1010.41 1010.33 1010.25 1010.15 1010.01 1009.85 1009.65 1009.42 1009.17 1008.91 1008.65 1008.39 1008.15
1016.11 1016.04 1015.98 1015.90 1015.81 1015.69 1015.55 1015.39 1015.20 1014.99 1014.78 1014.56 1014.34 1014.12 1013.90 1013.69 1013.48 1013.26 1013.04 1012.82 1012.58 1012.34 1012.10 1011.85 1011.61 1011.39 1011.19 1011.01 1010.86 1010.73 1010.62 1010.52 1010.42 1010.31 1010.18 1010.03 1009.85 1009.64 1009.41 1009.16 1008.89 1008.62 1008.35 1008.09
1016.22 1016.18 1016.15 1016.10 1016.05 1015.97 1015.88 1015.76 1015.62 1015.46 1015.29 1015.10 1014.91 1014.71 1014.51 1014.30 1014.09 1013.87 1013.64 1013.40 1013.15 1012.90 1012.65 1012.39 1012.15 1011.92 1011.70 1011.51 1011.34 1011.18 1011.04 1010.91 1010.77 1010.63 1010.47 1010.29 1010.09 1009.87 1009.62 1009.36 1009.09 1008.80 1008.52 1008.23
1016.40 1016.40 1016.39 1016.39 1016.38 1016.35 1016.31 1016.25 1016.16 1016.06 1015.93 1015.79 1015.64 1015.47 1015.29 1015.09 1014.88 1014.66 1014.43 1014.19 1013.94 1013.68 1013.41 1013.15 1012.90 1012.65 1012.42 1012.20 1012.00 1011.81 1011.63 1011.45 1011.27 1011.09 1010.89 1010.68 1010.45 1010.20 1009.93 1009.66 1009.37 1009.08 1008.78 1008.47
Thickness
5756 5766 5768 5769 5769 5766 5763 5757 5751 5758 5762 5776 5783 5786 5790 5791 5791 5790 5788 5787 5786 5783 5781 5779 5777 5775 5773 5769 5766 5762 5757 5753 5749 5746 5742 5738 5735 5732 5729 5726 5723 5721 5719 5716
5748 5758 5761 5759 5763 5764 5763 5761 5761 5763 5764 5779 5784 5784 5784 5785 5786 5784 5784 5784 5783 5781 5779 5777 5775 5772 5770 5767 5763 5759 5754 5749 5746 5742 5739 5735 5731 5728 5725 5722 5719 5716 5714 5712
5726 5742 5749 5738 5753 5757 5759 5764 5763 5757 5765 5774 5774 5776 5778 5781 5782 5782 5781 5781 5779 5778 5777 5775 5773 5770 5766 5763 5760 5755 5750 5746 5742 5738 5733 5729 5727 5724 5720 5717 5714 5711 5709 5707
5711 5726 5715 5738 5760 5762 5757 5758 5762 5764 5767 5770 5771 5775 5779 5780 5779 5779 5779 5778 5777 5775 5774 5772 5770 5766 5762 5759 5755 5750 5745 5741 5738 5734 5729 5726 5723 5720 5716 5713 5710 5707 5704 5701
5696 5701 5713 5736 5750 5753 5748 5745 5756 5758 5761 5764 5768 5769 5770 5775 5776 5775 5776 5775 5775 5774 5772 5769 5765 5762 5758 5753 5749 5744 5740 5736 5733 5730 5727 5723 5719 5715 5712 5708 5704 5701 5699 5696
5690 5695 5697 5725 5747 5756 5750 5734 5752 5754 5755 5756 5758 5748 5756 5769 5770 5769 5770 5770 5769 5769 5766 5763 5760 5758 5753 5748 5744 5740 5737 5734 5730 5726 5722 5718 5714 5710 5706 5703 5699 5696 5693 5691
5686 5690 5702 5728 5742 5748 5725 5730 5747 5749 5750 5750 5748 5750 5757 5762 5762 5762 5762 5762 5761 5760 5757 5755 5753 5750 5745 5742 5738 5736 5732 5728 5724 5719 5716 5713 5709 5705 5701 5697 5694 5691 5688 5685
5677 5682 5695 5726 5731 5726 5727 5738 5741 5742 5744 5745 5746 5750 5752 5753 5753 5753 5753 5753 5752 5750 5748 5747 5746 5743 5738 5735 5734 5729 5725 5721 5717 5714 5711 5708 5703 5699 5695 5692 5688 5685 5682 5679
5683 5691 5706 5716 5720 5726 5729 5730 5733 5735 5738 5740 5740 5741 5743 5744 5744 5745 5745 5745 5744 5742 5741 5740 5738 5736 5731 5729 5728 5724 5719 5715 5712 5708 5705 5703 5699 5694 5690 5686 5683 5679 5676 5673
5681 5692 5702 5709 5715 5719 5722 5723 5726 5728 5730 5732 5732 5733 5733 5734 5734 5735 5736 5736 5735 5734 5732 5731 5730 5729 5727 5724 5721 5717 5712 5709 5705 5703 5700 5697 5694 5690 5685 5681 5677 5673 5670 5668
5674 5686 5694 5702 5706 5710 5714 5717 5719 5721 5722 5723 5725 5725 5726 5725 5726 5727 5728 5728 5727 5726 5724 5723 5722 5721 5720 5717 5714 5709 5704 5701 5698 5696 5694 5690 5687 5683 5680 5678 5674 5670 5667 5664
5670 5681 5682 5689 5699 5703 5705 5707 5709 5711 5712 5715 5717 5718 5719 5718 5719 5719 5719 5719 5718 5718 5717 5716 5715 5713 5711 5710 5707 5702 5698 5694 5691 5688 5685 5682 5679 5676 5673 5671 5668 5664 5661 5658
5673 5678 5680 5686 5691 5695 5697 5700 5702 5704 5705 5707 5709 5711 5711 5710 5711 5711 5711 5711 5711 5711 5710 5709 5708 5706 5705 5703 5700 5696 5692 5688 5685 5682 5679 5675 5673 5671 5667 5664 5660 5657 5654 5651
5669 5672 5673 5678 5682 5687 5690 5693 5695 5697 5698 5700 5700 5702 5702 5702 5701 5702 5702 5703 5704 5703 5702 5701 5700 5699 5698 5695 5692 5688 5685 5682 5679 5676 5674 5670 5668 5665 5662 5658 5654 5651 5647 5644
5661 5665 5667 5671 5674 5678 5681 5683 5684 5686 5687 5689 5691 5692 5694 5693 5692 5693 5694 5695 5695 5694 5693 5693 5692 5691 5689 5687 5684 5680 5677 5674 5672 5669 5666 5663 5660 5657 5654 5651 5648 5645 5642 5638
5653 5657 5659 5662 5665 5668 5670 5673 5674 5676 5679 5681 5682 5684 5685 5685 5684 5685 5685 5686 5685 5685 5685 5685 5684 5683 5681 5678 5675 5672 5670 5668 5664 5661 5658 5654 5651 5649 5646 5643 5641 5638 5636 5633
5644 5646 5649 5652 5656 5660 5662 5664 5666 5669 5671 5673 5675 5677 5677 5676 5675 5675 5676 5677 5677 5677 5676 5676 5676 5675 5672 5670 5667 5665 5662 5659 5656 5653 5650 5647 5644 5641 5638 5635 5633 5631 5630 5627
5641 5644 5646 5648 5650 5652 5655 5658 5660 5662 5664 5666 5667 5667 5667 5667 5667 5668 5668 5669 5667 5666 5666 5666 5666 5665 5663 5661 5659 5657 5655 5651 5648 5645 5643 5640 5636 5634 5631 5629 5627 5625 5623 5620
5637 5639 5642 5644 5646 5647 5649 5652 5654 5656 5658 5658 5658 5658 5659 5660 5661 5660 5660 5659 5658 5657 5656 5656 5655 5655 5652 5651 5651 5649 5646 5643 5641 5638 5635 5632 5629 5627 5624 5622 5620 5618 5615 5612
5632 5636 5638 5639 5641 5642 5644 5647 5649 5650 5652 5652 5652 5651 5651 5652 5653 5652 5652 5651 5651 5651 5650 5648 5646 5645 5644 5643 5642 5641 5638 5636 5634 5630 5627 5625 5622 5620 5618 5615 5613 5611 5608 5605
5628 5631 5632 5633 5635 5638 5640 5642 5643 5644 5645 5645 5645 5644 5644 5644 5644 5644 5643 5643 5643 5643 5642 5640 5639 5638 5637 5636 5635 5633 5630 5628 5625 5623 5621 5618 5615 5613 5610 5608 5606 5603 5601 5599
5622 5624 5626 5628 5629 5632 5635 5636 5637 5638 5640 5639 5638 5638 5637 5637 5637 5636 5636 5636 5635 5634 5634 5633 5632 5631 5629 5627 5626 5624 5622 5620 5617 5615 5613 5610 5607 5605 5603 5600 5598 5596 5594 5592
5617 5619 5621 5623 5625 5626 5628 5630 5631 5633 5632 5632 5632 5631 5631 5631 5631 5630 5629 5628 5628 5627 5627 5626 5624 5622 5621 5620 5618 5616 5614 5612 5610 5608 5605 5603 5600 5598 5595 5593 5591 5589 5587 5584
5611 5614 5616 5618 5620 5621 5622 5624 5625 5626 5626 5626 5626 5626 5626 5625 5624 5624 5623 5622 5621 5620 5619 5617 5616 5615 5614 5612 5610 5608 5606 5604 5602 5600 5597 5595 5592 5590 5588 5586 5583 5581 5579 5577
5606 5608 5611 5613 5614 5614 5616 5618 5618 5618 5618 5618 5619 5619 5620 5619 5618 5617 5616 5615 5614 5613 5611 5610 5609 5608 5607 5605 5603 5601 5599 5597 5594 5592 5589 5586 5584 5582 5580 5578 5576 5574 5573 5571
5601 5602 5604 5606 5607 5609 5610 5612 5612 5612 5612 5612 5611 5611 5611 5612 5611 5610 5609 5608 5607 5605 5604 5603 5601 5599 5598 5597 5596 5594 5592 5590 5587 5584 5582 5579 5577 5575 5573 5571 5570 5568 5566 5564
5597 5598 5600 5601 5602 5603 5604 5605 5606 5605 5606 5605 5604 5604 5605 5605 5604 5603 5602 5600 5598 5597 5596 5595 5593 5591 5590 5589 5587 5586 5584 5582 5579 5577 5575 5572 5570 5568 5566 5564 5562 5560 5558 5556